[[{"header":{"parameterUnit":"m.s-1","parameterCategory":1,"la1":30.2991,"la2":30.254,"lo1":-89.0895,"lo2":-89.0444,"dy":0.0017,"dx":0.0017,"nx":28,"ny":28,"refTime":"2023-08-28T03:00:00:Z","depth":0,"parameterNumber":2,"parameterNumberName":"U-component_of_WINDS"},"data":[0,0,0,0,0,0,0,0,0,0,0,0,0,0,0,0,0,0,0,0,0,0,0,0,0,0,0,0,0,0,0,0,0,0,0,0,0,0,0,0,0,0,0,0,0,0,0,0,0,0,0,0,0,0,0,0,0,0,-1.6919,-1.692,0,-1.7001,-1.7002,-1.7003,-1.6975,-1.6973,-1.6971,-1.6969,-1.7056,-1.706,-1.7064,0,0,0,0,0,0,0,0,0,0,0,0,0,-1.6741,-1.6744,-1.6919,-1.692,-1.6921,-1.7001,-1.7002,-1.7003,-1.6975,-1.6973,-1.6971,-1.6968,-1.7055,-1.706,-1.7064,0,0,0,0,0,0,0,0,0,0,0,0,0,-1.682,-1.6745,-1.6919,-1.6917,-1.6917,-1.7001,-1.7002,-1.7004,-1.6975,-1.6973,-1.697,-1.6967,-1.7053,-1.7059,-1.7065,-1.7157,0,0,-1.7083,-1.7086,0,0,0,0,0,0,0,0,-1.6816,-1.6827,-1.6916,-1.6917,-1.6918,-1.6975,-1.6971,-1.7055,-1.6976,-1.6953,-1.6969,-1.6966,-1.7031,-1.7039,-1.7061,-1.7161,-1.7165,-1.7084,-1.7088,-1.709,-1.7092,0,0,0,0,0,0,0,-1.681,-1.6823,-1.6952,-1.6917,-1.6918,-1.6912,-1.6921,-1.6987,-1.7007,-1.6955,-1.6953,-1.6963,-1.7031,-1.7055,-1.7062,-1.7166,-1.7084,-1.7089,-1.7093,-1.7095,-1.7348,-1.7351,0,0,0,0,0,0,-1.6804,-1.6819,-1.6949,-1.6954,-1.6859,-1.6918,-1.6927,-1.6959,-1.7006,-1.701,-1.6965,-1.6962,-1.7046,-1.7055,-1.7065,-1.7178,-1.709,-1.7096,-1.7099,-1.7345,-1.7349,-1.7352,0,0,0,0,0,0,-1.68,-1.6816,-1.6946,-1.6886,-1.6902,-1.6924,-1.696,-1.6962,-1.6986,-1.7014,-1.7017,-1.6986,-1.7044,-1.7057,-1.7135,-1.7181,-1.7098,-1.7104,-1.7341,-1.7346,-1.7351,-1.7403,0,0,0,0,0,0,-1.6795,-1.6814,-1.6849,-1.6887,-1.6905,-1.7013,-1.6963,-1.6966,-1.6996,-1.6992,-1.7034,-1.7038,-1.7043,-1.7126,-1.7141,-1.7187,-1.7109,-1.7338,-1.7344,-1.7349,-1.7397,-1.7409,-1.7418,0,0,0,0,0,-1.6789,-1.686,-1.6851,-1.6867,-1.6949,-1.7016,-1.7026,-1.703,-1.7,-1.7035,-1.7053,-1.7037,-1.7173,-1.7134,-1.7151,-1.72,-1.7335,-1.7342,-1.7349,-1.7392,-1.7406,-1.7418,0,0,0,0,0,0,-1.6828,-1.6865,-1.6855,-1.6941,-1.6975,-1.7011,-1.7055,-1.7044,-1.7088,-1.7083,-1.7086,-1.7096,-1.7176,-1.7195,-1.7152,-1.7292,-1.7249,-1.726,-1.7277,-1.7291,-1.7301,-1.7296,-1.7114,0,0,0,0,0,-1.6846,-1.6897,-1.6927,-1.7,-1.7018,-1.7034,-1.7063,-1.7063,-1.7099,-1.7113,-1.7137,-1.7174,-1.7225,-1.7258,-1.7307,-1.7399,-1.7409,-1.7441,-1.7452,-1.746,-1.747,-1.7523,-1.7538,-1.7375,-1.7375,-1.7375,0,0,-1.6886,-1.6912,-1.6944,-1.7009,-1.7035,-1.7089,-1.7046,-1.7104,-1.7144,-1.7122,-1.7198,-1.7216,-1.7257,-1.7343,-1.7382,-1.7362,-1.7517,-1.7469,-1.7476,-1.7481,-1.7532,-1.7547,-1.7561,-1.738,-1.7379,-1.7378,0,0,-1.6985,-1.7009,-1.7073,-1.7101,-1.7141,-1.7151,-1.7167,-1.7204,-1.7216,-1.7291,-1.7276,-1.7324,-1.7412,-1.7442,-1.7469,-1.758,-1.7568,-1.7596,-1.7653,-1.7704,-1.7717,-1.7728,-1.777,-1.7785,-1.7605,-1.7605,-1.7605,0,-1.7028,-1.7107,-1.7108,-1.7168,-1.7197,-1.7179,-1.7245,-1.7272,-1.7327,-1.7348,-1.7324,-1.7434,-1.746,-1.7555,-1.7582,-1.7603,-1.7623,-1.7592,-1.7715,-1.7726,-1.7737,-1.7777,-1.7793,-1.7609,-1.7608,-1.7608,-1.7608,0,-1.716,-1.7216,-1.7263,-1.7316,-1.7351,-1.7413,-1.7425,-1.746,-1.7457,-1.747,-1.7548,-1.7578,-1.7634,-1.7655,-1.7653,-1.775,-1.7736,-1.7713,-1.7671,-1.7756,-1.7794,-1.7809,-1.7613,-1.7612,-1.7611,-1.761,0,0,-1.7288,-1.734,-1.7358,-1.7382,-1.7426,-1.7469,-1.7531,-1.7585,-1.7616,-1.7654,-1.7708,-1.7783,-1.7762,-1.7793,-1.7793,-1.7838,-1.7927,-1.781,-1.7811,-1.7833,-1.8039,-1.8057,-1.8075,-1.7918,-1.7921,-1.7923,-1.8036,0,-1.7392,-1.7501,-1.7503,-1.7604,-1.7656,-1.764,-1.7694,-1.7728,-1.7742,-1.7789,-1.7804,-1.7858,-1.7826,-1.7845,-1.7888,-1.7907,-1.7969,-1.7899,-1.797,-1.7973,-1.7963,-1.8094,-1.8114,-1.8219,-1.8051,-1.8053,-1.8055,0,-1.7528,-1.7571,-1.7677,-1.7714,-1.7736,-1.7785,-1.7835,-1.7879,-1.7918,-1.7925,-1.7959,-1.7953,-1.8019,-1.7973,-1.8064,-1.8016,-1.8045,-1.8059,-1.8063,-1.8072,-1.8021,-1.8109,-1.8253,-1.827,-1.8078,-1.8076,-1.8074,0,-1.7613,-1.7697,-1.7772,-1.7793,-1.7838,-1.7873,-1.7893,-1.7929,-1.7961,-1.8005,-1.8026,-1.8077,-1.8106,-1.8146,-1.8155,-1.8119,-1.8247,-1.8201,-1.8257,-1.8257,-1.8286,-1.8285,-1.8439,-1.8301,-1.8301,-1.83,-1.83,0,-1.7731,-1.7797,-1.7811,-1.7857,-1.7931,-1.7933,-1.8007,-1.8025,-1.8056,-1.8107,-1.8095,-1.8143,-1.815,-1.82,-1.8207,-1.8283,-1.8296,-1.8305,-1.8306,-1.8307,-1.8307,-1.8328,-1.8322,-1.8304,-1.8304,-1.8303,-1.8302,0,-1.784,-1.7851,-1.7932,-1.7967,-1.7978,-1.8031,-1.8063,-1.8108,-1.812,-1.8184,-1.8199,-1.822,-1.8278,-1.829,-1.8359,-1.8364,-1.8455,-1.8448,-1.8443,-1.8443,-1.8499,-1.8494,-1.8675,-1.87,-1.8543,-1.8544,-1.8545,0,-1.7915,-1.7965,-1.8007,-1.8039,-1.8062,-1.8114,-1.8147,-1.8152,-1.8187,-1.8235,-1.8275,-1.8331,-1.8377,-1.8472,-1.8493,-1.8547,-1.8543,-1.8602,-1.8551,-1.8551,-1.8547,-1.8545,-1.8551,-1.8613,-1.8614,-1.8616,-1.8617,0,-1.8049,-1.8052,-1.81,-1.815,-1.819,-1.823,-1.8267,-1.8295,-1.8305,-1.8345,-1.8404,-1.844,-1.8511,-1.8568,-1.8622,-1.8644,-1.8634,-1.8632,-1.8649,-1.8652,-1.8647,-1.8653,-1.8472,-1.8629,-1.8628,-1.8627,-1.8626,-1.8626,-1.8145,-1.819,-1.8226,-1.828,-1.8309,-1.8345,-1.839,-1.8408,-1.8457,-1.8515,-1.8514,-1.858,-1.8618,-1.8688,-1.8714,-1.8766,-1.8748,-1.8771,-1.8777,-1.8783,-1.879,-1.8637,-1.8776,-1.8775,-1.8775,-1.8775,-1.8775,0,-1.828,-1.8303,-1.8352,-1.8406,-1.8449,-1.8433,-1.8474,-1.8512,-1.8569,-1.8605,-1.8651,-1.872,-1.8776,-1.8802,-1.8858,-1.8895,-1.8891,-1.8909,-1.8908,-1.8914,-1.8802,-1.8783,-1.8911,-1.8911,-1.8911,-1.8911,-1.8911,-1.8911,-1.8356,-1.8432,-1.8439,-1.853,-1.8552,-1.8616,-1.8641,-1.8675,-1.8704,-1.8782,-1.8828,-1.8844,-1.8877,-1.8935,-1.8986,-1.8992,-1.9015,-1.9036,-1.904,-1.8935,-1.8922,-1.8908,-1.8891,-1.904,-1.904,-1.9148,-1.9149,-1.915]},{"header":{"parameterUnit":"m.s-1","parameterCategory":1,"la1":30.2991,"la2":30.254,"lo1":-89.0895,"lo2":-89.0444,"dy":0.0017,"dx":0.0017,"nx":28,"ny":28,"refTime":"2023-08-28T03:00:00:Z","depth":0,"parameterNumber":3,"parameterNumberName":"V-component_of_WINDS"},"data":[0,0,0,0,0,0,0,0,0,0,0,0,0,0,0,0,0,0,0,0,0,0,0,0,0,0,0,0,0,0,0,0,0,0,0,0,0,0,0,0,0,0,0,0,0,0,0,0,0,0,0,0,0,0,0,0,0,0,-2.4767,-2.4767,0,-2.476,-2.476,-2.476,-2.4711,-2.4709,-2.4708,-2.4707,-2.47,-2.4701,-2.4702,0,0,0,0,0,0,0,0,0,0,0,0,0,-2.4739,-2.474,-2.4767,-2.4767,-2.4767,-2.476,-2.476,-2.476,-2.4711,-2.4709,-2.4708,-2.4707,-2.4699,-2.4701,-2.4702,0,0,0,0,0,0,0,0,0,0,0,0,0,-2.4744,-2.474,-2.4767,-2.4742,-2.4739,-2.476,-2.476,-2.476,-2.4711,-2.4709,-2.4708,-2.4706,-2.4699,-2.47,-2.4702,-2.4746,0,0,-2.4706,-2.4707,0,0,0,0,0,0,0,0,-2.4743,-2.4745,-2.4746,-2.4744,-2.4741,-2.4734,-2.4747,-2.4755,-2.4712,-2.4722,-2.4707,-2.4705,-2.4713,-2.4713,-2.4715,-2.4746,-2.4746,-2.4706,-2.4707,-2.4708,-2.4708,0,0,0,0,0,0,0,-2.4743,-2.4745,-2.4764,-2.4746,-2.4743,-2.4731,-2.4729,-2.4748,-2.4728,-2.4721,-2.4717,-2.4717,-2.4711,-2.4714,-2.4715,-2.4746,-2.4706,-2.4707,-2.4708,-2.4709,-2.4813,-2.4815,0,0,0,0,0,0,-2.4746,-2.4745,-2.4765,-2.4764,-2.4738,-2.4733,-2.4731,-2.4738,-2.4727,-2.4724,-2.4719,-2.4715,-2.4713,-2.4713,-2.4714,-2.4767,-2.4708,-2.4709,-2.471,-2.4811,-2.4813,-2.4816,0,0,0,0,0,0,-2.4746,-2.4749,-2.4765,-2.4753,-2.4755,-2.4735,-2.4744,-2.4739,-2.4742,-2.4725,-2.4721,-2.4726,-2.4711,-2.4713,-2.4739,-2.4766,-2.4709,-2.4711,-2.4809,-2.4812,-2.4814,-2.4871,0,0,0,0,0,0,-2.4745,-2.4749,-2.4765,-2.4754,-2.4755,-2.479,-2.4745,-2.474,-2.4745,-2.474,-2.4731,-2.4728,-2.471,-2.4737,-2.474,-2.4767,-2.4712,-2.4806,-2.481,-2.4814,-2.4867,-2.4876,-2.4883,0,0,0,0,0,-2.4744,-2.4782,-2.4767,-2.4769,-2.4776,-2.4791,-2.4792,-2.4771,-2.4747,-2.4764,-2.4753,-2.4728,-2.4762,-2.474,-2.4743,-2.4771,-2.4805,-2.4809,-2.4813,-2.4863,-2.4874,-2.4883,0,0,0,0,0,0,-2.4796,-2.478,-2.4763,-2.4797,-2.4796,-2.4783,-2.4803,-2.4783,-2.4788,-2.4783,-2.4756,-2.4755,-2.4786,-2.478,-2.4756,-2.4813,-2.4779,-2.4784,-2.4816,-2.4826,-2.4834,-2.4835,-2.4713,0,0,0,0,0,-2.4812,-2.4826,-2.481,-2.4842,-2.4842,-2.4823,-2.4829,-2.4813,-2.481,-2.481,-2.4801,-2.48,-2.481,-2.4817,-2.4826,-2.4865,-2.4863,-2.4886,-2.4894,-2.4901,-2.4906,-2.4927,-2.4937,-2.483,-2.483,-2.483,0,0,-2.4844,-2.4836,-2.4847,-2.4852,-2.4849,-2.4865,-2.4823,-2.4841,-2.4852,-2.4812,-2.4837,-2.4831,-2.4827,-2.4861,-2.4875,-2.4858,-2.4935,-2.4906,-2.4912,-2.4913,-2.4933,-2.4943,-2.4952,-2.4833,-2.4832,-2.4832,0,0,-2.491,-2.4906,-2.4932,-2.493,-2.4927,-2.4914,-2.492,-2.491,-2.4904,-2.4929,-2.49,-2.4912,-2.493,-2.493,-2.4932,-2.4998,-2.4976,-2.5002,-2.5045,-2.5066,-2.5075,-2.5082,-2.5107,-2.5116,-2.5007,-2.5007,-2.5007,0,-2.4951,-2.4973,-2.4949,-2.4968,-2.4972,-2.4937,-2.4964,-2.4963,-2.4962,-2.4966,-2.4946,-2.4969,-2.4964,-2.4997,-2.5013,-2.5016,-2.5023,-2.5003,-2.5075,-2.5083,-2.5089,-2.5112,-2.5122,-2.501,-2.501,-2.5009,-2.5009,0,-2.5023,-2.5039,-2.506,-2.5061,-2.5067,-2.509,-2.507,-2.5079,-2.5062,-2.5051,-2.5077,-2.507,-2.5077,-2.5083,-2.5067,-2.5114,-2.5104,-2.508,-2.5045,-2.5103,-2.5125,-2.5133,-2.5015,-2.5014,-2.5013,-2.5012,0,0,-2.5123,-2.511,-2.5118,-2.5119,-2.5112,-2.5124,-2.5145,-2.5152,-2.5161,-2.5161,-2.5179,-2.5196,-2.5174,-2.5176,-2.5159,-2.5178,-2.5232,-2.5152,-2.5151,-2.5168,-2.5286,-2.5305,-2.5315,-2.5217,-2.5218,-2.522,-2.5286,0,-2.5188,-2.5224,-2.5204,-2.5243,-2.5258,-2.5225,-2.5244,-2.5242,-2.5232,-2.5243,-2.5232,-2.5245,-2.5214,-2.5216,-2.5233,-2.5222,-2.5256,-2.5217,-2.5234,-2.5235,-2.5238,-2.5326,-2.5346,-2.5409,-2.5294,-2.5296,-2.5297,0,-2.5268,-2.5273,-2.5315,-2.5306,-2.5311,-2.5328,-2.5333,-2.5344,-2.5341,-2.5333,-2.5336,-2.5315,-2.5336,-2.53,-2.533,-2.5304,-2.5309,-2.5305,-2.5307,-2.5309,-2.5271,-2.5332,-2.5429,-2.5439,-2.531,-2.5309,-2.5308,0,-2.5339,-2.5355,-2.5382,-2.5383,-2.5373,-2.5386,-2.5383,-2.5378,-2.5384,-2.5388,-2.5392,-2.5398,-2.5402,-2.5408,-2.5389,-2.5365,-2.5421,-2.5384,-2.5415,-2.5416,-2.543,-2.5429,-2.553,-2.5431,-2.5431,-2.5431,-2.5431,0,-2.5414,-2.5441,-2.5414,-2.543,-2.546,-2.5435,-2.5465,-2.5458,-2.5454,-2.5469,-2.544,-2.5455,-2.5429,-2.5441,-2.5426,-2.5453,-2.5455,-2.5449,-2.5445,-2.5453,-2.5454,-2.5457,-2.5453,-2.5434,-2.5433,-2.5433,-2.5432,0,-2.5498,-2.548,-2.5508,-2.5496,-2.5494,-2.5516,-2.5506,-2.5522,-2.551,-2.5529,-2.5533,-2.5514,-2.5527,-2.5509,-2.552,-2.551,-2.5547,-2.5536,-2.5548,-2.5546,-2.5579,-2.5576,-2.5686,-2.57,-2.5591,-2.5592,-2.5593,0,-2.5548,-2.5568,-2.5558,-2.5567,-2.5565,-2.5578,-2.5584,-2.556,-2.5567,-2.5566,-2.5582,-2.5592,-2.56,-2.5622,-2.561,-2.5618,-2.5607,-2.5645,-2.5609,-2.5616,-2.561,-2.5609,-2.5612,-2.5654,-2.5655,-2.5656,-2.5657,0,-2.5639,-2.5629,-2.5639,-2.5645,-2.5653,-2.5657,-2.5659,-2.5667,-2.5642,-2.5652,-2.5665,-2.5671,-2.5682,-2.5693,-2.5698,-2.5694,-2.5672,-2.5668,-2.5676,-2.5685,-2.5692,-2.569,-2.557,-2.5666,-2.5665,-2.5664,-2.5664,-2.5664,-2.5708,-2.5725,-2.5721,-2.5732,-2.5731,-2.5734,-2.5748,-2.5738,-2.5748,-2.5756,-2.5741,-2.5758,-2.5755,-2.576,-2.5759,-2.5772,-2.5755,-2.5766,-2.577,-2.5773,-2.5779,-2.5689,-2.5772,-2.5772,-2.5772,-2.5772,-2.5771,0,-2.5798,-2.5794,-2.5805,-2.5809,-2.5818,-2.5796,-2.5797,-2.5806,-2.5821,-2.582,-2.5828,-2.5843,-2.5854,-2.5843,-2.5851,-2.5864,-2.5854,-2.5867,-2.5867,-2.5867,-2.5792,-2.5785,-2.5875,-2.5875,-2.5875,-2.5875,-2.5875,-2.5875,-2.5847,-2.5874,-2.5864,-2.5891,-2.5886,-2.5903,-2.5905,-2.5908,-2.5907,-2.5925,-2.5934,-2.5927,-2.5922,-2.593,-2.5939,-2.5935,-2.594,-2.5957,-2.595,-2.5882,-2.5872,-2.5862,-2.5855,-2.5958,-2.5958,-2.6023,-2.6024,-2.6025]}]]